Вернуться в каталог

ARIANE 5 R/B

АктивенHEO
NORAD 42816·ROCKET BODY·🇫🇷 France

Запущен Jun 28, 2017 с Guiana Space Centre

Loading…

Ближайшие Пролёты (ближайшие 24 часа)

TLE

СвежийSource: Space-Track

Эпоха: Sep 14, 2026, 11:51 UTC

1 42816U 17040C   26257.49418907  .00002113  00000-0  71576-3 0  9993
2 42816   3.0160  38.6151 7110710 208.6725  79.8562  2.49191132 79504

Отслеживайте ARIANE 5 R/B в реальном времени с AllMySat

Download on the App Store